owner,sensor,date,latitude,longitude,vertical_datum,direction_of_sea_water_velocity,sea_water_speed,upward_sea_water_velocity,qcFlag 
TABS,ioos:station:wmo:42043:1,2008-05-01T00:00:00Z,28.9818,-94.9186,2.0,266.2352724,26.80783654,-99999.0,'11111222,11111222,99999999' 
TABS,ioos:station:wmo:42043:1,2008-05-01T00:30:00Z,28.9818,-94.9186,2.0,272.7881252,27.96309175,-99999.0,'11111222,11111222,99999999' 
TABS,ioos:station:wmo:42043:1,2008-05-01T01:00:00Z,28.9818,-94.9186,2.0,273.5513208,23.89587621,-99999.0,'11111222,11111222,99999999' 
TABS,ioos:station:wmo:42043:1,2008-05-01T01:30:00Z,28.9818,-94.9186,2.0,283.7793945,24.3095907,-99999.0,'11111222,11111222,99999999' 
TABS,ioos:station:wmo:42043:1,2008-05-01T02:00:00Z,28.9818,-94.9186,2.0,294.2719415,25.0327086,-99999.0,'11111222,11111222,99999999' 
TABS,ioos:station:wmo:42043:1,2008-05-01T02:30:00Z,28.9818,-94.9186,2.0,305.2340176,27.3871667,-99999.0,'11111222,11111222,99999999' 
TABS,ioos:station:wmo:42043:1,2008-05-01T03:00:00Z,28.9818,-94.9186,2.0,303.4451837,27.21661441,-99999.0,'11111222,11111222,99999999' 
TABS,ioos:station:wmo:42043:1,2008-05-01T03:30:00Z,28.9818,-94.9186,2.0,311.3339567,25.54347862,-99999.0,'11111222,11111222,99999999' 
TABS,ioos:station:wmo:42043:1,2008-05-01T04:00:00Z,28.9818,-94.9186,2.0,316.4319439,21.79276256,-99999.0,'11111222,11111222,99999999' 
TABS,ioos:station:wmo:42043:1,2008-05-01T04:30:00Z,28.9818,-94.9186,2.0,319.9944517,19.41307034,-99999.0,'11111222,11111222,99999999' 
TABS,ioos:station:wmo:42043:1,2008-05-01T05:00:00Z,28.9818,-94.9186,2.0,286.590455,8.54574163,-99999.0,'11133222,11111222,99999999' 
TABS,ioos:station:wmo:42043:1,2008-05-01T05:30:00Z,28.9818,-94.9186,2.0,241.8998819,6.178235994,-99999.0,'11133222,11111222,99999999' 
TABS,ioos:station:wmo:42043:1,2008-05-01T06:00:00Z,28.9818,-94.9186,2.0,195.9592917,5.564476615,-99999.0,'11133222,11111222,99999999' 
TABS,ioos:station:wmo:42043:1,2008-05-01T06:30:00Z,28.9818,-94.9186,2.0,206.0474505,7.924947949,-99999.0,'11133222,11111222,99999999' 
TABS,ioos:station:wmo:42043:1,2008-05-01T07:00:00Z,28.9818,-94.9186,2.0,207.3638777,7.375269487,-99999.0,'11133222,11111222,99999999' 
TABS,ioos:station:wmo:42043:1,2008-05-01T07:30:00Z,28.9818,-94.9186,2.0,188.9626766,12.2596982,-99999.0,'11111222,11111222,99999999' 
TABS,ioos:station:wmo:42043:1,2008-05-01T08:00:00Z,28.9818,-94.9186,2.0,197.1663642,17.14374522,-99999.0,'11111222,11111222,99999999' 
TABS,ioos:station:wmo:42043:1,2008-05-01T08:30:00Z,28.9818,-94.9186,2.0,201.7403481,19.24918959,-99999.0,'11111222,11111222,99999999' 
TABS,ioos:station:wmo:42043:1,2008-05-01T09:00:00Z,28.9818,-94.9186,2.0,162.5509754,9.37121657,-99999.0,'11133222,11111222,99999999' 
TABS,ioos:station:wmo:42043:1,2008-05-01T09:30:00Z,28.9818,-94.9186,2.0,181.6638341,22.03929445,-99999.0,'11111222,11111222,99999999' 
TABS,ioos:station:wmo:42043:1,2008-05-01T10:00:00Z,28.9818,-94.9186,2.0,186.9588583,31.69348829,-99999.0,'11111222,11111222,99999999' 
TABS,ioos:station:wmo:42043:1,2008-05-01T10:30:00Z,28.9818,-94.9186,2.0,178.798097,29.08639716,-99999.0,'11111222,11111222,99999999' 
TABS,ioos:station:wmo:42043:1,2008-05-01T11:00:00Z,28.9818,-94.9186,2.0,183.598893,31.38189446,-99999.0,'11111222,11111222,99999999' 
TABS,ioos:station:wmo:42043:1,2008-05-01T11:30:00Z,28.9818,-94.9186,2.0,172.4867028,26.00323826,-99999.0,'11111222,11111222,99999999' 
TABS,ioos:station:wmo:42043:1,2008-05-01T12:00:00Z,28.9818,-94.9186,2.0,182.667339,29.22166491,-99999.0,'11111222,11111222,99999999' 
TABS,ioos:station:wmo:42043:1,2008-05-01T12:30:00Z,28.9818,-94.9186,2.0,183.0289381,33.11627093,-99999.0,'11111222,11111222,99999999' 
TABS,ioos:station:wmo:42043:1,2008-05-01T13:00:00Z,28.9818,-94.9186,2.0,191.5247885,33.43411431,-99999.0,'11111222,11111222,99999999' 
TABS,ioos:station:wmo:42043:1,2008-05-01T13:30:00Z,28.9818,-94.9186,2.0,198.725848,29.24828371,-99999.0,'11111222,11111222,99999999' 
TABS,ioos:station:wmo:42043:1,2008-05-01T14:00:00Z,28.9818,-94.9186,2.0,202.8440032,31.4248564,-99999.0,'11111222,11111222,99999999' 
TABS,ioos:station:wmo:42043:1,2008-05-01T14:30:00Z,28.9818,-94.9186,2.0,194.153169,29.65004216,-99999.0,'11111222,11111222,99999999' 
TABS,ioos:station:wmo:42043:1,2008-05-01T15:00:00Z,28.9818,-94.9186,2.0,203.5541948,36.78489364,-99999.0,'11111222,11111222,99999999' 
TABS,ioos:station:wmo:42043:1,2008-05-01T15:30:00Z,28.9818,-94.9186,2.0,202.1106052,35.06907612,-99999.0,'11111222,11111222,99999999' 
TABS,ioos:station:wmo:42043:1,2008-05-01T16:00:00Z,28.9818,-94.9186,2.0,209.0478883,34.57971949,-99999.0,'11111222,11111222,99999999' 
TABS,ioos:station:wmo:42043:1,2008-05-01T16:30:00Z,28.9818,-94.9186,2.0,202.7335973,32.86314197,-99999.0,'11111222,11111222,99999999' 
TABS,ioos:station:wmo:42043:1,2008-05-01T17:00:00Z,28.9818,-94.9186,2.0,212.151642,37.71378793,-99999.0,'11111222,11111222,99999999' 
TABS,ioos:station:wmo:42043:1,2008-05-01T17:30:00Z,28.9818,-94.9186,2.0,216.6846638,35.93818721,-99999.0,'11111222,11111222,99999999' 
TABS,ioos:station:wmo:42043:1,2008-05-01T18:00:00Z,28.9818,-94.9186,2.0,220.3483884,34.44346818,-99999.0,'11111222,11111222,99999999' 
TABS,ioos:station:wmo:42043:1,2008-05-01T18:30:00Z,28.9818,-94.9186,2.0,218.6955681,37.22090004,-99999.0,'11111222,11111222,99999999' 
TABS,ioos:station:wmo:42043:1,2008-05-01T19:00:00Z,28.9818,-94.9186,2.0,220.4956181,35.38684077,-99999.0,'11111222,11111222,99999999' 
TABS,ioos:station:wmo:42043:1,2008-05-01T19:30:00Z,28.9818,-94.9186,2.0,224.5180314,36.16978988,-99999.0,'11111222,11111222,99999999' 
TABS,ioos:station:wmo:42043:1,2008-05-01T20:00:00Z,28.9818,-94.9186,2.0,229.7933416,36.97667508,-99999.0,'11111222,11111222,99999999' 
TABS,ioos:station:wmo:42043:1,2008-05-01T20:30:00Z,28.9818,-94.9186,2.0,229.1652528,34.6549275,-99999.0,'11111222,11111222,99999999' 
TABS,ioos:station:wmo:42043:1,2008-05-01T21:00:00Z,28.9818,-94.9186,2.0,234.2727577,33.08658338,-99999.0,'11111222,11111222,99999999' 
TABS,ioos:station:wmo:42043:1,2008-05-01T21:30:00Z,28.9818,-94.9186,2.0,232.6029772,30.88930559,-99999.0,'11111222,11111222,99999999' 
TABS,ioos:station:wmo:42043:1,2008-05-01T22:00:00Z,28.9818,-94.9186,2.0,248.7025973,28.05593877,-99999.0,'11111222,11111222,99999999' 
TABS,ioos:station:wmo:42043:1,2008-05-01T22:30:00Z,28.9818,-94.9186,2.0,254.0998658,29.31138004,-99999.0,'11111222,11111222,99999999' 
TABS,ioos:station:wmo:42043:1,2008-05-01T23:00:00Z,28.9818,-94.9186,2.0,268.9466966,27.75468609,-99999.0,'11111222,11111222,99999999' 
TABS,ioos:station:wmo:42043:1,2008-05-01T23:30:00Z,28.9818,-94.9186,2.0,286.8285577,26.39009663,-99999.0,'11111222,11111222,99999999' 
TABS,ioos:station:wmo:42043:1,2008-05-02T00:00:00Z,28.9818,-94.9186,2.0,295.4049959,29.3700681,-99999.0,'11111222,11111222,99999999' 
TABS,ioos:station:wmo:42043:1,2008-05-02T00:30:00Z,28.9818,-94.9186,2.0,307.6848873,34.04144092,-99999.0,'11111222,11111222,99999999' 
TABS,ioos:station:wmo:42043:1,2008-05-02T01:00:00Z,28.9818,-94.9186,2.0,311.9678523,34.6189269,-99999.0,'11111222,11111222,99999999' 
TABS,ioos:station:wmo:42043:1,2008-05-02T01:30:00Z,28.9818,-94.9186,2.0,308.1790803,38.87614307,-99999.0,'11111222,11111222,99999999' 
TABS,ioos:station:wmo:42043:1,2008-05-02T02:00:00Z,28.9818,-94.9186,2.0,306.4929543,33.41072433,-99999.0,'11111222,11111222,99999999' 
TABS,ioos:station:wmo:42043:1,2008-05-02T02:30:00Z,28.9818,-94.9186,2.0,294.5620404,29.8071166,-99999.0,'11111222,11111222,99999999' 
TABS,ioos:station:wmo:42043:1,2008-05-02T03:00:00Z,28.9818,-94.9186,2.0,278.8662646,25.11001792,-99999.0,'11111222,11111222,99999999' 
TABS,ioos:station:wmo:42043:1,2008-05-02T03:30:00Z,28.9818,-94.9186,2.0,299.1897906,25.58956819,-99999.0,'11111222,11111222,99999999' 
TABS,ioos:station:wmo:42043:1,2008-05-02T04:00:00Z,28.9818,-94.9186,2.0,288.9555906,22.28865182,-99999.0,'11111222,11111222,99999999' 
TABS,ioos:station:wmo:42043:1,2008-05-02T04:30:00Z,28.9818,-94.9186,2.0,295.8660295,22.7156708,-99999.0,'11111222,11111222,99999999' 
TABS,ioos:station:wmo:42043:1,2008-05-02T05:00:00Z,28.9818,-94.9186,2.0,279.0753353,22.12696545,-99999.0,'11111222,11111222,99999999' 
TABS,ioos:station:wmo:42043:1,2008-05-02T05:30:00Z,28.9818,-94.9186,2.0,263.0711099,20.97315665,-99999.0,'11111222,11111222,99999999' 
TABS,ioos:station:wmo:42043:1,2008-05-02T06:00:00Z,28.9818,-94.9186,2.0,259.5815198,22.17557666,-99999.0,'11111222,11111222,99999999' 
TABS,ioos:station:wmo:42043:1,2008-05-02T06:30:00Z,28.9818,-94.9186,2.0,250.7713889,25.80982177,-99999.0,'11111222,11111222,99999999' 
TABS,ioos:station:wmo:42043:1,2008-05-02T07:00:00Z,28.9818,-94.9186,2.0,239.9523336,22.08841325,-99999.0,'11111222,11111222,99999999' 
TABS,ioos:station:wmo:42043:1,2008-05-02T07:30:00Z,28.9818,-94.9186,2.0,243.570983,24.42240365,-99999.0,'11111222,11111222,99999999' 
TABS,ioos:station:wmo:42043:1,2008-05-02T08:00:00Z,28.9818,-94.9186,2.0,233.7105735,30.58157125,-99999.0,'11111222,11111222,99999999' 
TABS,ioos:station:wmo:42043:1,2008-05-02T08:30:00Z,28.9818,-94.9186,2.0,227.6573728,33.70160382,-99999.0,'11111222,11111222,99999999' 
TABS,ioos:station:wmo:42043:1,2008-05-02T09:00:00Z,28.9818,-94.9186,2.0,227.2841352,31.5761999,-99999.0,'11111222,11111222,99999999' 
TABS,ioos:station:wmo:42043:1,2008-05-02T09:30:00Z,28.9818,-94.9186,2.0,234.2925029,31.04639271,-99999.0,'11111222,11111222,99999999' 
TABS,ioos:station:wmo:42043:1,2008-05-02T10:00:00Z,28.9818,-94.9186,2.0,237.0484147,30.75790955,-99999.0,'11111222,11111222,99999999' 
TABS,ioos:station:wmo:42043:1,2008-05-02T10:30:00Z,28.9818,-94.9186,2.0,222.202939,26.81006714,-99999.0,'11111222,11111222,99999999' 
TABS,ioos:station:wmo:42043:1,2008-05-02T11:00:00Z,28.9818,-94.9186,2.0,216.186282,23.81369354,-99999.0,'11111222,11111222,99999999' 
TABS,ioos:station:wmo:42043:1,2008-05-02T11:30:00Z,28.9818,-94.9186,2.0,203.5538981,28.35223095,-99999.0,'11111222,11111222,99999999' 
TABS,ioos:station:wmo:42043:1,2008-05-02T12:00:00Z,28.9818,-94.9186,2.0,186.5850842,32.5245907,-99999.0,'11111222,11111222,99999999' 
TABS,ioos:station:wmo:42043:1,2008-05-02T12:30:00Z,28.9818,-94.9186,2.0,191.7202853,32.293312,-99999.0,'11111222,11111222,99999999' 
TABS,ioos:station:wmo:42043:1,2008-05-02T13:00:00Z,28.9818,-94.9186,2.0,198.3738826,35.75273136,-99999.0,'11111222,11111222,99999999' 
TABS,ioos:station:wmo:42043:1,2008-05-02T13:30:00Z,28.9818,-94.9186,2.0,153.4348005,31.52855848,-99999.0,'11111222,11111222,99999999' 
TABS,ioos:station:wmo:42043:1,2008-05-02T14:00:00Z,28.9818,-94.9186,2.0,170.729113,36.37512337,-99999.0,'11111222,11111222,99999999' 
TABS,ioos:station:wmo:42043:1,2008-05-02T14:30:00Z,28.9818,-94.9186,2.0,169.0935568,33.40332918,-99999.0,'11111222,11111222,99999999' 
TABS,ioos:station:wmo:42043:1,2008-05-02T15:00:00Z,28.9818,-94.9186,2.0,180.261337,35.05036519,-99999.0,'11111222,11111222,99999999' 
TABS,ioos:station:wmo:42043:1,2008-05-02T15:30:00Z,28.9818,-94.9186,2.0,184.5391259,40.30643249,-99999.0,'11111222,11111222,99999999' 
TABS,ioos:station:wmo:42043:1,2008-05-02T16:00:00Z,28.9818,-94.9186,2.0,194.1713488,45.17481157,-99999.0,'11111222,11111222,99999999' 
TABS,ioos:station:wmo:42043:1,2008-05-02T16:30:00Z,28.9818,-94.9186,2.0,211.3713456,52.03741923,-99999.0,'11111222,11111222,99999999' 
TABS,ioos:station:wmo:42043:1,2008-05-02T17:00:00Z,28.9818,-94.9186,2.0,211.0986004,54.53841674,-99999.0,'11111222,11111222,99999999' 
TABS,ioos:station:wmo:42043:1,2008-05-02T17:30:00Z,28.9818,-94.9186,2.0,217.8258783,50.45102675,-99999.0,'11111222,11111222,99999999' 
TABS,ioos:station:wmo:42043:1,2008-05-02T18:00:00Z,28.9818,-94.9186,2.0,206.703913,46.04077541,-99999.0,'11111222,11111222,99999999' 
TABS,ioos:station:wmo:42043:1,2008-05-02T18:30:00Z,28.9818,-94.9186,2.0,216.7941789,50.13804344,-99999.0,'11111222,11111222,99999999' 
TABS,ioos:station:wmo:42043:1,2008-05-02T19:00:00Z,28.9818,-94.9186,2.0,216.6148644,50.38249795,-99999.0,'11111222,11111222,99999999' 
TABS,ioos:station:wmo:42043:1,2008-05-02T19:30:00Z,28.9818,-94.9186,2.0,223.8509711,49.38011948,-99999.0,'11111222,11111222,99999999' 
TABS,ioos:station:wmo:42043:1,2008-05-02T20:00:00Z,28.9818,-94.9186,2.0,231.2696909,58.65890896,-99999.0,'11111222,11111222,99999999' 
TABS,ioos:station:wmo:42043:1,2008-05-02T20:30:00Z,28.9818,-94.9186,2.0,232.9058293,55.77642602,-99999.0,'11111222,11111222,99999999' 
TABS,ioos:station:wmo:42043:1,2008-05-02T21:00:00Z,28.9818,-94.9186,2.0,235.2061272,60.77590394,-99999.0,'11111222,11111222,99999999' 
TABS,ioos:station:wmo:42043:1,2008-05-02T21:30:00Z,28.9818,-94.9186,2.0,235.5929842,57.65727448,-99999.0,'11111222,11111222,99999999' 
TABS,ioos:station:wmo:42043:1,2008-05-02T22:00:00Z,28.9818,-94.9186,2.0,234.0907201,61.53465446,-99999.0,'11111222,11111222,99999999' 
TABS,ioos:station:wmo:42043:1,2008-05-02T22:30:00Z,28.9818,-94.9186,2.0,234.4104212,59.41884213,-99999.0,'11111222,11111222,99999999' 
TABS,ioos:station:wmo:42043:1,2008-05-02T23:00:00Z,28.9818,-94.9186,2.0,236.4160086,59.73022016,-99999.0,'11111222,11111222,99999999' 
TABS,ioos:station:wmo:42043:1,2008-05-02T23:30:00Z,28.9818,-94.9186,2.0,242.6633668,55.48634517,-99999.0,'11111222,11111222,99999999' 
TABS,ioos:station:wmo:42043:1,2008-05-03T00:00:00Z,28.9818,-94.9186,2.0,248.3002294,57.36509479,-99999.0,'11111222,11111222,99999999' 
TABS,ioos:station:wmo:42043:1,2008-05-03T00:30:00Z,28.9818,-94.9186,2.0,252.4776103,56.56451626,-99999.0,'11111222,11111222,99999999' 
TABS,ioos:station:wmo:42043:1,2008-05-03T01:00:00Z,28.9818,-94.9186,2.0,257.1922667,57.78770284,-99999.0,'11111222,11111222,99999999' 
TABS,ioos:station:wmo:42043:1,2008-05-03T01:30:00Z,28.9818,-94.9186,2.0,260.4693973,54.11689662,-99999.0,'11111222,11111222,99999999' 
TABS,ioos:station:wmo:42043:1,2008-05-03T02:00:00Z,28.9818,-94.9186,2.0,258.2859636,52.60553678,-99999.0,'11111222,11111222,99999999' 
TABS,ioos:station:wmo:42043:1,2008-05-03T02:30:00Z,28.9818,-94.9186,2.0,261.4404203,49.85525449,-99999.0,'11111222,11111222,99999999' 
TABS,ioos:station:wmo:42043:1,2008-05-03T03:00:00Z,28.9818,-94.9186,2.0,267.4477341,48.73833194,-99999.0,'11111222,11111222,99999999' 
TABS,ioos:station:wmo:42043:1,2008-05-03T03:30:00Z,28.9818,-94.9186,2.0,269.835481,45.39018616,-99999.0,'11111222,11111222,99999999' 
TABS,ioos:station:wmo:42043:1,2008-05-03T04:00:00Z,28.9818,-94.9186,2.0,276.6807666,43.15298367,-99999.0,'11111222,11111222,99999999' 
TABS,ioos:station:wmo:42043:1,2008-05-03T04:30:00Z,28.9818,-94.9186,2.0,287.2503181,40.06197699,-99999.0,'11111222,11111222,99999999' 
TABS,ioos:station:wmo:42043:1,2008-05-03T05:00:00Z,28.9818,-94.9186,2.0,286.2572037,33.86400006,-99999.0,'11111222,11111222,99999999' 
TABS,ioos:station:wmo:42043:1,2008-05-03T05:30:00Z,28.9818,-94.9186,2.0,287.6099433,28.75757465,-99999.0,'11111222,11111222,99999999' 
TABS,ioos:station:wmo:42043:1,2008-05-03T06:00:00Z,28.9818,-94.9186,2.0,297.5915837,24.72146031,-99999.0,'11111222,11111222,99999999' 
TABS,ioos:station:wmo:42043:1,2008-05-03T06:30:00Z,28.9818,-94.9186,2.0,289.9024148,21.738298,-99999.0,'11111222,11111222,99999999' 
TABS,ioos:station:wmo:42043:1,2008-05-03T07:00:00Z,28.9818,-94.9186,2.0,288.5390376,19.21719282,-99999.0,'11111222,11111222,99999999' 
TABS,ioos:station:wmo:42043:1,2008-05-03T07:30:00Z,28.9818,-94.9186,2.0,296.300563,14.51223622,-99999.0,'11111222,11111222,99999999' 
TABS,ioos:station:wmo:42043:1,2008-05-03T08:00:00Z,28.9818,-94.9186,2.0,284.8012564,15.26655167,-99999.0,'11111222,11111222,99999999' 
TABS,ioos:station:wmo:42043:1,2008-05-03T08:30:00Z,28.9818,-94.9186,2.0,268.5213099,10.8536123,-99999.0,'11111222,11111222,99999999' 
TABS,ioos:station:wmo:42043:1,2008-05-03T09:00:00Z,28.9818,-94.9186,2.0,261.9537878,10.57408625,-99999.0,'11111222,11111222,99999999' 
TABS,ioos:station:wmo:42043:1,2008-05-03T09:30:00Z,28.9818,-94.9186,2.0,231.2870664,13.55901176,-99999.0,'11111222,11111222,99999999' 
TABS,ioos:station:wmo:42043:1,2008-05-03T10:00:00Z,28.9818,-94.9186,2.0,213.1676178,12.17340133,-99999.0,'11111222,11111222,99999999' 
TABS,ioos:station:wmo:42043:1,2008-05-03T10:30:00Z,28.9818,-94.9186,2.0,195.9758012,15.40498945,-99999.0,'11111222,11111222,99999999' 
TABS,ioos:station:wmo:42043:1,2008-05-03T11:00:00Z,28.9818,-94.9186,2.0,218.8408531,18.25680421,-99999.0,'11111222,11111222,99999999' 
TABS,ioos:station:wmo:42043:1,2008-05-03T11:30:00Z,28.9818,-94.9186,2.0,201.7184142,21.86193496,-99999.0,'11111222,11111222,99999999' 
TABS,ioos:station:wmo:42043:1,2008-05-03T12:00:00Z,28.9818,-94.9186,2.0,180.4081039,35.08089081,-99999.0,'11111222,11111222,99999999' 
TABS,ioos:station:wmo:42043:1,2008-05-03T12:30:00Z,28.9818,-94.9186,2.0,190.7119882,33.83971927,-99999.0,'11111222,11111222,99999999' 
TABS,ioos:station:wmo:42043:1,2008-05-03T13:00:00Z,28.9818,-94.9186,2.0,193.0458253,31.7186948,-99999.0,'11111222,11111222,99999999' 
TABS,ioos:station:wmo:42043:1,2008-05-03T13:30:00Z,28.9818,-94.9186,2.0,195.5572384,31.24474996,-99999.0,'11111222,11111222,99999999' 
TABS,ioos:station:wmo:42043:1,2008-05-03T14:00:00Z,28.9818,-94.9186,2.0,207.9605951,22.94886707,-99999.0,'11111222,11111222,99999999' 
TABS,ioos:station:wmo:42043:1,2008-05-03T14:30:00Z,28.9818,-94.9186,2.0,205.0166245,24.99494749,-99999.0,'11111222,11111222,99999999' 
TABS,ioos:station:wmo:42043:1,2008-05-03T15:00:00Z,28.9818,-94.9186,2.0,215.6391088,21.60698267,-99999.0,'11111222,11111222,99999999' 
TABS,ioos:station:wmo:42043:1,2008-05-03T15:30:00Z,28.9818,-94.9186,2.0,223.4595095,19.2048874,-99999.0,'11111222,11111222,99999999' 
TABS,ioos:station:wmo:42043:1,2008-05-03T16:00:00Z,28.9818,-94.9186,2.0,239.9658256,14.26541622,-99999.0,'11111222,11111222,99999999' 
TABS,ioos:station:wmo:42043:1,2008-05-03T16:30:00Z,28.9818,-94.9186,2.0,235.315136,10.22743858,-99999.0,'11111222,11111222,99999999' 
TABS,ioos:station:wmo:42043:1,2008-05-03T17:00:00Z,28.9818,-94.9186,2.0,215.5987312,27.14267673,-99999.0,'11111222,11111222,99999999' 
TABS,ioos:station:wmo:42043:1,2008-05-03T17:30:00Z,28.9818,-94.9186,2.0,234.1189259,63.48746097,-99999.0,'11111222,11111222,99999999' 
TABS,ioos:station:wmo:42043:1,2008-05-03T18:00:00Z,28.9818,-94.9186,2.0,238.9953673,65.46274131,-99999.0,'11111222,11111222,99999999' 
TABS,ioos:station:wmo:42043:1,2008-05-03T18:30:00Z,28.9818,-94.9186,2.0,237.098392,71.11653113,-99999.0,'11111222,11111222,99999999' 
TABS,ioos:station:wmo:42043:1,2008-05-03T19:00:00Z,28.9818,-94.9186,2.0,232.0558323,95.61079489,-99999.0,'11111222,11111222,99999999' 
TABS,ioos:station:wmo:42043:1,2008-05-03T19:30:00Z,28.9818,-94.9186,2.0,236.9023614,90.61235291,-99999.0,'11111222,11111222,99999999' 
TABS,ioos:station:wmo:42043:1,2008-05-03T20:00:00Z,28.9818,-94.9186,2.0,241.4613048,91.30360617,-99999.0,'11111222,11111222,99999999' 
TABS,ioos:station:wmo:42043:1,2008-05-03T20:30:00Z,28.9818,-94.9186,2.0,237.2997709,98.38245067,-99999.0,'11111222,11111222,99999999' 
TABS,ioos:station:wmo:42043:1,2008-05-03T21:00:00Z,28.9818,-94.9186,2.0,238.4900716,100.8148729,-99999.0,'11111222,11111222,99999999' 
TABS,ioos:station:wmo:42043:1,2008-05-03T21:30:00Z,28.9818,-94.9186,2.0,240.3881516,101.231223,-99999.0,'11111222,11111222,99999999' 
TABS,ioos:station:wmo:42043:1,2008-05-03T22:00:00Z,28.9818,-94.9186,2.0,240.5996551,94.58067932,-99999.0,'11111222,11111222,99999999' 
TABS,ioos:station:wmo:42043:1,2008-05-03T22:30:00Z,28.9818,-94.9186,2.0,237.73986,104.5602817,-99999.0,'11111222,11111222,99999999' 
TABS,ioos:station:wmo:42043:1,2008-05-03T23:00:00Z,28.9818,-94.9186,2.0,245.1772407,101.6181504,-99999.0,'11111222,11111222,99999999' 
TABS,ioos:station:wmo:42043:1,2008-05-03T23:30:00Z,28.9818,-94.9186,2.0,246.5675655,93.44631186,-99999.0,'11111222,11111222,99999999' 
TABS,ioos:station:wmo:42043:1,2008-05-04T00:00:00Z,28.9818,-94.9186,2.0,252.1616864,82.8530102,-99999.0,'11111222,11111222,99999999' 
TABS,ioos:station:wmo:42043:1,2008-05-04T00:30:00Z,28.9818,-94.9186,2.0,254.6065741,79.7923386,-99999.0,'11111222,11111222,99999999' 
TABS,ioos:station:wmo:42043:1,2008-05-04T01:00:00Z,28.9818,-94.9186,2.0,258.8249995,81.37273376,-99999.0,'11111222,11111222,99999999' 
TABS,ioos:station:wmo:42043:1,2008-05-04T01:30:00Z,28.9818,-94.9186,2.0,260.0792273,76.90994799,-99999.0,'11111222,11111222,99999999' 
TABS,ioos:station:wmo:42043:1,2008-05-04T02:00:00Z,28.9818,-94.9186,2.0,263.5040777,79.02729908,-99999.0,'11111222,11111222,99999999' 
TABS,ioos:station:wmo:42043:1,2008-05-04T02:30:00Z,28.9818,-94.9186,2.0,263.6800808,76.49481878,-99999.0,'11111222,11111222,99999999' 
TABS,ioos:station:wmo:42043:1,2008-05-04T03:00:00Z,28.9818,-94.9186,2.0,269.9196354,71.67006976,-99999.0,'11111222,11111222,99999999' 
TABS,ioos:station:wmo:42043:1,2008-05-04T03:30:00Z,28.9818,-94.9186,2.0,276.6977197,61.47952911,-99999.0,'11111222,11111222,99999999' 
TABS,ioos:station:wmo:42043:1,2008-05-04T04:00:00Z,28.9818,-94.9186,2.0,283.1618887,62.27585407,-99999.0,'11111222,11111222,99999999' 
TABS,ioos:station:wmo:42043:1,2008-05-04T04:30:00Z,28.9818,-94.9186,2.0,281.3889785,54.28891968,-99999.0,'11111222,11111222,99999999' 
TABS,ioos:station:wmo:42043:1,2008-05-04T05:00:00Z,28.9818,-94.9186,2.0,278.0153237,47.83728462,-99999.0,'11111222,11111222,99999999' 
TABS,ioos:station:wmo:42043:1,2008-05-04T05:30:00Z,28.9818,-94.9186,2.0,278.72169,47.28674761,-99999.0,'11111222,11111222,99999999' 
TABS,ioos:station:wmo:42043:1,2008-05-04T06:00:00Z,28.9818,-94.9186,2.0,279.5043059,56.62724609,-99999.0,'11111222,11111222,99999999' 
TABS,ioos:station:wmo:42043:1,2008-05-04T06:30:00Z,28.9818,-94.9186,2.0,272.4880645,52.2992868,-99999.0,'11111222,11111222,99999999' 
TABS,ioos:station:wmo:42043:1,2008-05-04T07:00:00Z,28.9818,-94.9186,2.0,274.8743059,47.90321284,-99999.0,'11111222,11111222,99999999' 
TABS,ioos:station:wmo:42043:1,2008-05-04T07:30:00Z,28.9818,-94.9186,2.0,273.5133748,44.55371814,-99999.0,'11111222,11111222,99999999' 
TABS,ioos:station:wmo:42043:1,2008-05-04T08:00:00Z,28.9818,-94.9186,2.0,274.3744004,44.44946006,-99999.0,'11111222,11111222,99999999' 
TABS,ioos:station:wmo:42043:1,2008-05-04T08:30:00Z,28.9818,-94.9186,2.0,266.6109473,45.50957042,-99999.0,'11111222,11111222,99999999' 
TABS,ioos:station:wmo:42043:1,2008-05-04T09:00:00Z,28.9818,-94.9186,2.0,258.7001947,42.71801728,-99999.0,'11111222,11111222,99999999' 
TABS,ioos:station:wmo:42043:1,2008-05-04T09:30:00Z,28.9818,-94.9186,2.0,254.8693084,45.093168,-99999.0,'11111222,11111222,99999999' 
TABS,ioos:station:wmo:42043:1,2008-05-04T10:00:00Z,28.9818,-94.9186,2.0,252.5712924,45.54066425,-99999.0,'11111222,11111222,99999999' 
TABS,ioos:station:wmo:42043:1,2008-05-04T10:30:00Z,28.9818,-94.9186,2.0,247.794404,49.53360475,-99999.0,'11111222,11111222,99999999' 
TABS,ioos:station:wmo:42043:1,2008-05-04T11:00:00Z,28.9818,-94.9186,2.0,246.2110092,49.85575694,-99999.0,'11111222,11111222,99999999' 
TABS,ioos:station:wmo:42043:1,2008-05-04T11:30:00Z,28.9818,-94.9186,2.0,239.7666901,54.45694538,-99999.0,'11111222,11111222,99999999' 
TABS,ioos:station:wmo:42043:1,2008-05-04T12:00:00Z,28.9818,-94.9186,2.0,239.11687,50.96600043,-99999.0,'11111222,11111222,99999999' 
TABS,ioos:station:wmo:42043:1,2008-05-04T12:30:00Z,28.9818,-94.9186,2.0,235.8281004,52.80654978,-99999.0,'11111222,11111222,99999999' 
TABS,ioos:station:wmo:42043:1,2008-05-04T13:00:00Z,28.9818,-94.9186,2.0,231.0532102,56.18889926,-99999.0,'11111222,11111222,99999999' 
TABS,ioos:station:wmo:42043:1,2008-05-04T13:30:00Z,28.9818,-94.9186,2.0,236.6113296,58.45789083,-99999.0,'11111222,11111222,99999999' 
TABS,ioos:station:wmo:42043:1,2008-05-04T14:00:00Z,28.9818,-94.9186,2.0,233.9433283,66.9067448,-99999.0,'11111222,11111222,99999999' 
TABS,ioos:station:wmo:42043:1,2008-05-04T14:30:00Z,28.9818,-94.9186,2.0,235.1864973,90.27815904,-99999.0,'11111222,11111222,99999999' 
TABS,ioos:station:wmo:42043:1,2008-05-04T15:00:00Z,28.9818,-94.9186,2.0,233.2897941,95.23837147,-99999.0,'11111222,11111222,99999999' 
TABS,ioos:station:wmo:42043:1,2008-05-04T15:30:00Z,28.9818,-94.9186,2.0,231.6525132,97.59443683,-99999.0,'11111222,11111222,99999999' 
TABS,ioos:station:wmo:42043:1,2008-05-04T16:00:00Z,28.9818,-94.9186,2.0,231.4583309,98.18977747,-99999.0,'11111222,11111222,99999999' 